Location: Tr�vern
(48.0333°N, 4.6000°W)
Time: 19:10:31
(UTC+00:00)

Cosmos 2369 Rocket - Pass Details

Date: 14 July 2020
Orbit: 829 x 852 km, 71.0° (Epoch: 11 August)

Event Time Altitude Azimuth Distance (km) Brightness Sun altitude
Rises 01:02:17 0° 314° (NW) 3,385 5.8 -19.8°
Reaches altitude 10° 01:06:51 10° 280° (W) 2,448 4.6 -19.7°
Maximum altitude 01:08:13 11° 265° (W) 2,382 4.4 -19.6°
Enters shadow 01:09:23 10° 253° (WSW) 2,428 4.3 -19.6°
